Location: Caltech
(34.1382°N, 118.1253°W)
Time: 06:31:48
(UTC-07:00)

ADEOS II - Visible Passes

Search period start: 29 July 2015 00:00
Search period end: 08 August 2015 00:00
Orbit: 800 x 802 km, 98.3° (Epoch: 29 July)

Date Brightness Start Highest point End Pass type
(mag) Time Alt. Az. Time Alt. Az. Time Alt. Az.
29 Jul 5.0 04:45:31 10° ENE 04:46:58 11° E 04:48:48 10° ESE visible
31 Jul 3.8 05:30:00 10° NNE 05:34:47 36° E 05:39:36 10° SSE visible
01 Aug 4.7 05:04:40 10° NE 05:08:20 20° E 05:12:10 10° SE visible
04 Aug 4.0 05:24:56 10° NE 05:29:35 32° E 05:34:17 10° SSE visible
05 Aug 4.7 04:59:45 10° NE 05:03:06 18° E 05:06:40 10° SE visible
